TimeCST,TemperatureF,Dew PointF,Humidity,Sea Level PressureIn,VisibilityMPH,Wind Direction,Wind SpeedMPH,Gust SpeedMPH,PrecipitationIn,Events,Conditions,WindDirDegrees,DateUTC
12:01 AM,14.0,10.4,86,29.79,7.0,South,9.2,-,N/A,,Clear,180,2014-02-13 06:01:00
12:21 AM,14.0,10.4,86,29.78,7.0,South,10.4,-,N/A,,Clear,170,2014-02-13 06:21:00
12:41 AM,14.0,10.4,86,29.76,7.0,South,12.7,-,N/A,,Scattered Clouds,170,2014-02-13 06:41:00
1:01 AM,14.0,10.4,86,29.73,5.0,SSE,11.5,17.3,N/A,,Mostly Cloudy,150,2014-02-13 07:01:00
1:21 AM,14.0,12.2,93,29.71,5.0,SSE,10.4,-,N/A,,Overcast,160,2014-02-13 07:21:00
1:41 AM,14.0,12.2,93,29.69,5.0,SSE,11.5,16.1,N/A,,Mostly Cloudy,150,2014-02-13 07:41:00
2:01 AM,14.0,12.2,93,29.69,5.0,South,10.4,-,N/A,,Scattered Clouds,170,2014-02-13 08:01:00
2:21 AM,14.0,12.2,93,29.66,5.0,SSE,12.7,16.1,N/A,,Scattered Clouds,160,2014-02-13 08:21:00
2:41 AM,15.8,12.2,86,29.63,5.0,SSE,10.4,17.3,N/A,,Clear,160,2014-02-13 08:41:00
3:01 AM,15.8,12.2,86,29.64,5.0,South,11.5,16.1,N/A,,Clear,180,2014-02-13 09:01:00
3:21 AM,15.8,12.2,86,29.59,5.0,SSE,13.8,19.6,N/A,,Scattered Clouds,150,2014-02-13 09:21:00
3:41 AM,15.8,14.0,93,29.55,3.0,SSE,15.0,-,N/A,Snow,Light Snow,150,2014-02-13 09:41:00
4:01 AM,15.8,14.0,93,29.54,5.0,SSE,12.7,-,N/A,,Mostly Cloudy,160,2014-02-13 10:01:00
4:21 AM,17.6,15.8,93,29.54,7.0,South,9.2,-,N/A,,Overcast,170,2014-02-13 10:21:00
4:41 AM,17.6,15.8,93,29.53,7.0,South,9.2,-,N/A,,Mostly Cloudy,170,2014-02-13 10:41:00
5:01 AM,19.4,15.8,86,29.52,7.0,South,9.2,16.1,N/A,,Overcast,170,2014-02-13 11:01:00
5:21 AM,19.4,15.8,86,29.50,7.0,South,13.8,18.4,N/A,,Overcast,180,2014-02-13 11:21:00
5:41 AM,19.4,15.8,86,29.50,7.0,South,12.7,-,N/A,,Mostly Cloudy,180,2014-02-13 11:41:00
6:01 AM,19.4,15.8,86,29.49,7.0,South,10.4,17.3,N/A,,Scattered Clouds,180,2014-02-13 12:01:00
6:21 AM,19.4,15.8,86,29.47,7.0,South,10.4,16.1,N/A,,Clear,180,2014-02-13 12:21:00
6:41 AM,19.4,15.8,86,29.46,7.0,South,10.4,-,N/A,,Clear,180,2014-02-13 12:41:00
7:01 AM,19.4,15.8,86,29.45,7.0,South,10.4,-,N/A,,Clear,190,2014-02-13 13:01:00
7:21 AM,21.2,17.6,86,29.45,7.0,SSW,11.5,-,N/A,,Scattered Clouds,200,2014-02-13 13:21:00
7:41 AM,23.0,19.4,86,29.45,7.0,SSW,8.1,-,N/A,,Mostly Cloudy,200,2014-02-13 13:41:00
8:01 AM,24.8,21.2,86,29.44,7.0,SSW,9.2,-,N/A,,Overcast,200,2014-02-13 14:01:00
8:21 AM,26.6,21.2,80,29.44,7.0,SSW,5.8,-,N/A,,Overcast,210,2014-02-13 14:21:00
8:41 AM,26.6,23.0,86,29.44,10.0,SW,4.6,-,N/A,,Overcast,220,2014-02-13 14:41:00
9:01 AM,32.0,-9999,N/A,29.44,10.0,WSW,6.9,-,N/A,,Overcast,240,2014-02-13 15:01:00
9:21 AM,30.2,24.8,80,29.44,10.0,WSW,9.2,-,N/A,,Overcast,240,2014-02-13 15:21:00
9:27 AM,30.2,24.8,80,29.44,10.0,WSW,10.4,-,N/A,,Overcast,250,2014-02-13 15:27:00
9:28 AM,30.2,24.8,80,29.44,10.0,WSW,10.4,-,N/A,,Overcast,250,2014-02-13 15:28:00
10:01 AM,26.6,19.4,74,29.47,4.0,West,23.0,34.5,N/A,,Mostly Cloudy,270,2014-02-13 16:01:00
10:21 AM,24.8,17.6,74,29.48,5.0,West,21.9,27.6,N/A,,Haze,270,2014-02-13 16:21:00
10:41 AM,21.2,15.8,80,29.49,3.0,West,19.6,25.3,N/A,,Haze,270,2014-02-13 16:41:00
11:01 AM,19.4,14.0,80,29.49,3.0,West,25.3,33.4,N/A,,Haze,270,2014-02-13 17:01:00
11:21 AM,17.6,12.2,79,29.50,2.0,West,19.6,28.8,N/A,,Haze,270,2014-02-13 17:21:00
11:41 AM,17.6,12.2,79,29.49,3.0,West,20.7,31.1,N/A,,Haze,270,2014-02-13 17:41:00
12:01 PM,17.6,10.4,73,29.49,2.5,West,25.3,33.4,N/A,,Haze,270,2014-02-13 18:01:00
12:21 PM,17.6,10.4,73,29.50,3.0,West,20.7,26.5,N/A,Snow,Light Snow,280,2014-02-13 18:21:00
12:41 PM,15.8,10.4,79,29.50,1.8,West,19.6,32.2,N/A,Snow,Light Snow,270,2014-02-13 18:41:00
1:21 PM,15.8,10.4,79,29.52,1.5,West,18.4,28.8,N/A,Snow,Light Snow,280,2014-02-13 19:21:00
1:41 PM,15.8,10.4,79,29.52,1.5,West,23.0,28.8,N/A,Snow,Light Snow,280,2014-02-13 19:41:00
2:01 PM,15.8,10.4,79,29.54,1.8,West,21.9,28.8,N/A,Snow,Light Snow,280,2014-02-13 20:01:00
2:21 PM,15.8,10.4,79,29.55,1.8,WNW,21.9,28.8,N/A,Snow,Light Snow,290,2014-02-13 20:21:00
2:41 PM,14.0,8.6,79,29.56,3.0,West,17.3,31.1,N/A,,Haze,280,2014-02-13 20:41:00
3:01 PM,14.0,8.6,79,29.56,2.5,West,20.7,31.1,N/A,Snow,Light Snow,280,2014-02-13 21:01:00
3:21 PM,14.0,8.6,79,29.58,4.0,WNW,24.2,29.9,N/A,,Haze,290,2014-02-13 21:21:00
3:41 PM,12.2,8.6,85,29.59,4.0,West,23.0,29.9,N/A,,Haze,280,2014-02-13 21:41:00
4:01 PM,12.2,8.6,85,29.60,5.0,WNW,17.3,26.5,N/A,,Haze,290,2014-02-13 22:01:00
4:21 PM,12.2,6.8,79,29.62,7.0,WNW,13.8,24.2,N/A,,Scattered Clouds,290,2014-02-13 22:21:00
4:41 PM,12.2,6.8,79,29.63,7.0,West,19.6,28.8,N/A,,Scattered Clouds,280,2014-02-13 22:41:00
5:01 PM,10.4,5.0,79,29.64,10.0,West,16.1,-,N/A,,Clear,280,2014-02-13 23:01:00
5:21 PM,10.4,3.2,73,29.65,7.0,West,15.0,27.6,N/A,,Clear,280,2014-02-13 23:21:00
5:41 PM,8.6,3.2,79,29.66,10.0,WNW,16.1,-,N/A,,Clear,290,2014-02-13 23:41:00
6:01 PM,8.6,3.2,79,29.67,10.0,West,13.8,-,N/A,,Clear,280,2014-02-14 00:01:00
6:21 PM,8.6,1.4,73,29.68,10.0,West,15.0,-,N/A,,Clear,280,2014-02-14 00:21:00
6:40 PM,6.8,1.4,79,29.68,10.0,West,13.8,-,N/A,,Clear,280,2014-02-14 00:40:00
7:01 PM,6.8,1.4,79,29.69,10.0,West,11.5,-,N/A,,Clear,280,2014-02-14 01:01:00
7:21 PM,6.8,1.4,79,29.70,10.0,West,11.5,-,N/A,,Clear,270,2014-02-14 01:21:00
7:41 PM,5.0,-0.4,78,29.70,10.0,West,13.8,19.6,N/A,,Clear,280,2014-02-14 01:41:00
8:01 PM,5.0,-0.4,78,29.70,10.0,West,16.1,-,N/A,,Clear,270,2014-02-14 02:01:00
8:21 PM,5.0,-0.4,78,29.71,10.0,West,15.0,-,N/A,,Clear,270,2014-02-14 02:21:00
8:41 PM,3.2,-0.4,85,29.71,10.0,West,11.5,-,N/A,,Clear,280,2014-02-14 02:41:00
9:01 PM,3.2,-0.4,85,29.72,10.0,West,11.5,-,N/A,,Clear,270,2014-02-14 03:01:00
9:21 PM,3.2,-2.2,78,29.71,10.0,West,12.7,-,N/A,,Clear,270,2014-02-14 03:21:00
9:41 PM,1.4,-2.2,85,29.72,10.0,West,12.7,-,N/A,,Clear,280,2014-02-14 03:41:00
10:01 PM,1.4,-2.2,85,29.72,10.0,West,11.5,-,N/A,,Clear,270,2014-02-14 04:01:00
10:20 PM,1.4,-2.2,85,29.73,10.0,West,11.5,-,N/A,,Clear,270,2014-02-14 04:20:00
10:41 PM,1.4,-2.2,85,29.72,10.0,West,11.5,-,N/A,,Clear,280,2014-02-14 04:41:00
11:01 PM,1.4,-2.2,85,29.71,10.0,WNW,11.5,-,N/A,,Clear,290,2014-02-14 05:01:00
11:21 PM,1.4,-2.2,85,29.72,10.0,WNW,12.7,-,N/A,,Clear,290,2014-02-14 05:21:00
11:41 PM,1.4,-2.2,85,29.72,10.0,West,11.5,-,N/A,,Clear,280,2014-02-14 05:41:00